ENVISAT (27386 NORAD) Tracking and Keplerian Element Data

This shows tracking and keplerian element data for the satellite.

Feedback or suggestion? Click here.




ElementValue
Catalog27386
NameENVISAT
Epoch Orbit14611
Epoch Day12.94279087
Epoch Year2024
RAAN339.6614
Inclination98.2611
Eccentricity0.0001099
Argument of Perigee85.0391
Mean Anonmoly343.4153
Mean Motion14.38479726
Decay Rate2.59E-06
L11 27386U 02009A 24012.94279087 .00000259 00000+0 98556-4 0 9994
L22 27386 98.2611 339.6614 0001099 85.0391 343.4153 14.38479726146119



Live tracking and technical data element details for ENVISAT (NORAD 27386). ENVISAT can be tracked NOW for your location showing map with azimuth and elevation plus other details from your city location.







IsCatalogInMostPopularTable: catalog: 27386, numindb: 462
Update: records affected: 1



GetName: 27386 ENVISAT

Hit Count: updated at: Mon, 15 Apr 2024 00:18:39 GMT